Time,TemperatureF,DewpointF,PressureIn,WindDirection,WindDirectionDegrees,WindSpeedMPH,WindSpeedGustMPH,Humidity,HourlyPrecipIn,Conditions,Clouds,dailyrainin,SoftwareType,DateUTC
2013-07-24 00:05:00,53.0,46.0,30.03,SW,225,0.0,0.0,77,0.00,,,-99.99,Weather View 32 v60,2013-07-24 05:05:00,
2013-07-24 00:10:00,52.0,45.3,30.03,SW,225,0.0,0.0,78,0.00,,,-99.99,Weather View 32 v60,2013-07-24 05:10:00,
2013-07-24 00:20:00,52.0,45.7,30.03,SW,225,0.0,0.0,79,0.00,,,-99.99,Weather View 32 v60,2013-07-24 05:20:00,
2013-07-24 00:25:00,52.0,45.7,30.03,SW,225,0.0,0.0,79,0.00,,,-99.99,Weather View 32 v60,2013-07-24 05:25:00,
2013-07-24 00:35:00,52.0,46.0,30.03,WSW,248,0.0,0.0,80,0.00,,,-99.99,Weather View 32 v60,2013-07-24 05:35:00,
2013-07-24 00:40:00,52.0,46.0,30.03,SW,225,0.0,0.0,80,0.00,,,-99.99,Weather View 32 v60,2013-07-24 05:40:00,
2013-07-24 00:45:00,53.0,47.0,30.04,SW,225,0.0,0.0,80,0.00,,,-99.99,Weather View 32 v60,2013-07-24 05:45:00,
2013-07-24 00:50:00,53.0,47.0,30.04,SW,225,0.0,0.0,80,0.00,,,-99.99,Weather View 32 v60,2013-07-24 05:50:00,
2013-07-24 00:55:00,53.0,47.3,30.04,SSW,202,0.0,0.0,81,0.00,,,-99.99,Weather View 32 v60,2013-07-24 05:55:00,
2013-07-24 01:05:00,53.0,47.3,30.04,SSW,202,0.0,1.0,81,0.00,,,-99.99,Weather View 32 v60,2013-07-24 06:05:00,
2013-07-24 01:10:00,53.0,47.3,30.04,SSW,202,0.0,1.0,81,0.00,,,-99.99,Weather View 32 v60,2013-07-24 06:10:00,
2013-07-24 01:15:00,53.0,47.3,30.04,South,180,0.0,2.0,81,0.00,,,-99.99,Weather View 32 v60,2013-07-24 06:15:00,
2013-07-24 01:25:00,53.0,47.3,30.04,SSW,202,1.0,4.0,81,0.00,,,-99.99,Weather View 32 v60,2013-07-24 06:25:00,
2013-07-24 01:30:00,53.0,47.3,30.04,NNW,338,2.0,4.0,81,0.00,,,-99.99,Weather View 32 v60,2013-07-24 06:30:00,
2013-07-24 01:35:00,53.0,47.6,30.04,SW,225,0.0,4.0,82,0.00,,,-99.99,Weather View 32 v60,2013-07-24 06:35:00,
2013-07-24 01:45:00,53.0,47.6,30.05,SW,225,0.0,4.0,82,0.00,,,-99.99,Weather View 32 v60,2013-07-24 06:45:00,
2013-07-24 01:50:00,53.0,47.6,30.05,SW,225,0.0,4.0,82,0.00,,,-99.99,Weather View 32 v60,2013-07-24 06:50:00,
2013-07-24 01:58:00,53.0,47.6,30.05,SW,225,0.0,4.0,82,0.00,,,-99.99,Weather View 32 v60,2013-07-24 06:58:00,
2013-07-24 02:05:00,53.0,47.6,30.05,SW,225,0.0,4.0,82,0.00,,,-99.99,Weather View 32 v60,2013-07-24 07:05:00,
2013-07-24 02:10:00,53.0,47.6,30.05,SW,225,0.0,4.0,82,0.00,,,-99.99,Weather View 32 v60,2013-07-24 07:10:00,
2013-07-24 02:15:00,53.0,47.6,30.05,SW,225,0.0,4.0,82,0.00,,,-99.99,Weather View 32 v60,2013-07-24 07:15:00,
2013-07-24 02:20:00,53.0,47.6,30.05,SW,225,0.0,4.0,82,0.00,,,-99.99,Weather View 32 v60,2013-07-24 07:20:00,
2013-07-24 02:30:00,53.0,48.0,30.05,SW,225,0.0,2.0,83,0.00,,,-99.99,Weather View 32 v60,2013-07-24 07:30:00,
2013-07-24 02:35:00,53.0,48.0,30.05,SW,225,0.0,0.0,83,0.00,,,-99.99,Weather View 32 v60,2013-07-24 07:35:00,
2013-07-24 02:45:00,53.0,48.0,30.05,SW,225,0.0,0.0,83,0.00,,,-99.99,Weather View 32 v60,2013-07-24 07:45:00,
2013-07-24 02:50:00,53.0,48.0,30.05,SW,225,0.0,0.0,83,0.00,,,-99.99,Weather View 32 v60,2013-07-24 07:50:00,
2013-07-24 02:55:00,53.0,48.0,30.05,SW,225,0.0,0.0,83,0.00,,,-99.99,Weather View 32 v60,2013-07-24 07:55:00,
2013-07-24 03:00:00,53.0,48.0,30.05,SW,225,0.0,0.0,83,0.00,,,-99.99,Weather View 32 v60,2013-07-24 08:00:00,
2013-07-24 03:05:00,53.0,48.0,30.05,SW,225,0.0,0.0,83,0.00,,,-99.99,Weather View 32 v60,2013-07-24 08:05:00,
2013-07-24 03:10:00,53.0,48.0,30.05,SSW,202,0.0,0.0,83,0.00,,,-99.99,Weather View 32 v60,2013-07-24 08:10:00,
2013-07-24 03:20:00,53.0,48.0,30.05,SW,225,0.0,0.0,83,0.00,,,-99.99,Weather View 32 v60,2013-07-24 08:20:00,
2013-07-24 03:25:00,53.0,48.0,30.05,SW,225,0.0,0.0,83,0.00,,,-99.99,Weather View 32 v60,2013-07-24 08:25:00,
2013-07-24 03:30:00,53.0,48.0,30.05,SW,225,0.0,0.0,83,0.00,,,-99.99,Weather View 32 v60,2013-07-24 08:30:00,
2013-07-24 03:35:00,53.0,48.0,30.05,SW,225,0.0,0.0,83,0.00,,,-99.99,Weather View 32 v60,2013-07-24 08:35:00,
2013-07-24 03:45:00,52.0,47.0,30.05,SSW,202,0.0,0.0,83,0.00,,,-99.99,Weather View 32 v60,2013-07-24 08:45:00,
2013-07-24 03:50:00,52.0,47.0,30.05,SSW,202,0.0,0.0,83,0.00,,,-99.99,Weather View 32 v60,2013-07-24 08:50:00,
2013-07-24 03:55:00,52.0,47.0,30.05,SW,225,0.0,0.0,83,0.00,,,-99.99,Weather View 32 v60,2013-07-24 08:55:00,
2013-07-24 04:00:00,52.0,47.0,30.05,SW,225,0.0,0.0,83,0.00,,,-99.99,Weather View 32 v60,2013-07-24 09:00:00,
2013-07-24 04:05:00,51.0,46.3,30.05,West,270,0.0,0.0,84,0.00,,,-99.99,Weather View 32 v60,2013-07-24 09:05:00,
2013-07-24 04:10:00,51.0,46.3,30.04,SW,225,0.0,0.0,84,0.00,,,-99.99,Weather View 32 v60,2013-07-24 09:10:00,
2013-07-24 04:15:00,51.0,46.3,30.05,SW,225,0.0,0.0,84,0.00,,,-99.99,Weather View 32 v60,2013-07-24 09:15:00,
2013-07-24 04:20:00,51.0,46.3,30.04,SW,225,0.0,0.0,84,0.00,,,-99.99,Weather View 32 v60,2013-07-24 09:20:00,
2013-07-24 04:25:00,51.0,46.3,30.04,SW,225,0.0,0.0,84,0.00,,,-99.99,Weather View 32 v60,2013-07-24 09:25:00,
2013-07-24 04:30:00,50.0,45.3,30.05,SW,225,0.0,0.0,84,0.00,,,-99.99,Weather View 32 v60,2013-07-24 09:30:00,
2013-07-24 04:40:00,50.0,45.3,30.05,SW,225,0.0,0.0,84,0.00,,,-99.99,Weather View 32 v60,2013-07-24 09:40:00,
2013-07-24 04:45:00,50.0,45.7,30.05,SW,225,0.0,0.0,85,0.00,,,-99.99,Weather View 32 v60,2013-07-24 09:45:00,
2013-07-24 04:50:00,50.0,45.7,30.06,SW,225,0.0,0.0,85,0.00,,,-99.99,Weather View 32 v60,2013-07-24 09:50:00,
2013-07-24 04:59:00,51.0,46.6,30.06,SW,225,0.0,0.0,85,0.00,,,-99.99,Weather View 32 v60,2013-07-24 09:59:00,
2013-07-24 05:05:00,51.0,46.6,30.06,SW,225,0.0,0.0,85,0.00,,,-99.99,Weather View 32 v60,2013-07-24 10:05:00,
2013-07-24 05:10:00,51.0,46.6,30.06,SW,225,0.0,0.0,85,0.00,,,-99.99,Weather View 32 v60,2013-07-24 10:10:00,
2013-07-24 05:15:00,51.0,46.6,30.06,SW,225,0.0,0.0,85,0.00,,,-99.99,Weather View 32 v60,2013-07-24 10:15:00,
2013-07-24 05:25:00,51.0,46.6,30.06,SW,225,0.0,0.0,85,0.00,,,-99.99,Weather View 32 v60,2013-07-24 10:25:00,
2013-07-24 05:30:00,51.0,46.6,30.07,SW,225,0.0,0.0,85,0.00,,,-99.99,Weather View 32 v60,2013-07-24 10:30:00,
2013-07-24 05:35:00,52.0,47.9,30.07,WSW,248,0.0,0.0,86,0.00,,,-99.99,Weather View 32 v60,2013-07-24 10:35:00,
2013-07-24 05:45:00,52.0,47.9,30.07,SW,225,0.0,0.0,86,0.00,,,-99.99,Weather View 32 v60,2013-07-24 10:45:00,
2013-07-24 05:50:00,52.0,47.9,30.07,SW,225,0.0,0.0,86,0.00,,,-99.99,Weather View 32 v60,2013-07-24 10:50:00,
2013-07-24 05:55:00,52.0,47.9,30.07,SW,225,0.0,0.0,86,0.00,,,-99.99,Weather View 32 v60,2013-07-24 10:55:00,
2013-07-24 06:00:00,52.0,47.9,30.07,SW,225,0.0,0.0,86,0.00,,,-99.99,Weather View 32 v60,2013-07-24 11:00:00,
2013-07-24 06:05:00,52.0,47.9,30.07,SW,225,0.0,0.0,86,0.00,,,-99.99,Weather View 32 v60,2013-07-24 11:05:00,
2013-07-24 06:10:00,52.0,47.9,30.07,WSW,248,0.0,0.0,86,0.00,,,-99.99,Weather View 32 v60,2013-07-24 11:10:00,
2013-07-24 06:15:00,52.0,47.9,30.07,WNW,292,0.0,0.0,86,0.00,,,-99.99,Weather View 32 v60,2013-07-24 11:15:00,
2013-07-24 06:20:00,52.0,47.9,30.08,SW,225,0.0,0.0,86,0.00,,,-99.99,Weather View 32 v60,2013-07-24 11:20:00,
2013-07-24 06:25:00,53.0,48.9,30.07,SW,225,0.0,0.0,86,0.00,,,-99.99,Weather View 32 v60,2013-07-24 11:25:00,
2013-07-24 06:30:00,53.0,48.9,30.08,SW,225,0.0,0.0,86,0.00,,,-99.99,Weather View 32 v60,2013-07-24 11:30:00,
2013-07-24 06:35:00,53.0,48.9,30.07,SW,225,0.0,0.0,86,0.00,,,-99.99,Weather View 32 v60,2013-07-24 11:35:00,
2013-07-24 06:40:00,53.0,48.9,30.07,SSW,202,0.0,0.0,86,0.00,,,-99.99,Weather View 32 v60,2013-07-24 11:40:00,
2013-07-24 06:45:00,53.0,48.9,30.08,SW,225,0.0,0.0,86,0.00,,,-99.99,Weather View 32 v60,2013-07-24 11:45:00,
2013-07-24 06:50:00,53.0,48.9,30.08,North,0,0.0,0.0,86,0.00,,,-99.99,Weather View 32 v60,2013-07-24 11:50:00,
2013-07-24 06:55:00,54.0,49.9,30.08,West,270,0.0,0.0,86,0.00,,,-99.99,Weather View 32 v60,2013-07-24 11:55:00,
2013-07-24 07:00:00,54.0,49.9,30.08,SW,225,0.0,0.0,86,0.00,,,-99.99,Weather View 32 v60,2013-07-24 12:00:00,
2013-07-24 07:10:00,54.0,49.9,30.08,WSW,248,0.0,0.0,86,0.00,,,-99.99,Weather View 32 v60,2013-07-24 12:10:00,
2013-07-24 07:15:00,54.0,49.9,30.08,WSW,248,0.0,0.0,86,0.00,,,-99.99,Weather View 32 v60,2013-07-24 12:15:00,
2013-07-24 07:20:00,54.0,49.9,30.08,SW,225,0.0,0.0,86,0.00,,,-99.99,Weather View 32 v60,2013-07-24 12:20:00,
2013-07-24 07:25:00,54.0,49.9,30.08,SW,225,0.0,0.0,86,0.00,,,-99.99,Weather View 32 v60,2013-07-24 12:25:00,
2013-07-24 07:30:00,55.0,50.9,30.08,SSW,202,0.0,0.0,86,0.00,,,-99.99,Weather View 32 v60,2013-07-24 12:30:00,
2013-07-24 07:35:00,55.0,50.9,30.08,SW,225,0.0,0.0,86,0.00,,,-99.99,Weather View 32 v60,2013-07-24 12:35:00,
2013-07-24 07:40:00,55.0,50.9,30.08,SW,225,0.0,0.0,86,0.00,,,-99.99,Weather View 32 v60,2013-07-24 12:40:00,
2013-07-24 07:45:00,55.0,50.6,30.08,West,270,0.0,1.0,85,0.00,,,-99.99,Weather View 32 v60,2013-07-24 12:45:00,
2013-07-24 07:50:00,56.0,51.5,30.08,SW,225,0.0,1.0,85,0.00,,,-99.99,Weather View 32 v60,2013-07-24 12:50:00,
2013-07-24 07:55:00,56.0,51.5,30.08,SSW,202,0.0,2.0,85,0.00,,,-99.99,Weather View 32 v60,2013-07-24 12:55:00,
2013-07-24 08:01:00,56.0,51.5,30.08,SW,225,1.0,3.0,85,0.00,,,-99.99,Weather View 32 v60,2013-07-24 13:01:00,
2013-07-24 08:10:00,57.0,52.2,30.09,NW,315,1.0,3.0,84,0.00,,,-99.99,Weather View 32 v60,2013-07-24 13:10:00,
2013-07-24 08:15:00,57.0,52.2,30.09,WNW,292,1.0,3.0,84,0.00,,,-99.99,Weather View 32 v60,2013-07-24 13:15:00,
2013-07-24 08:20:00,57.0,51.9,30.09,WNW,292,1.0,3.0,83,0.00,,,-99.99,Weather View 32 v60,2013-07-24 13:20:00,
2013-07-24 08:25:00,57.0,51.9,30.09,WNW,292,1.0,3.0,83,0.00,,,-99.99,Weather View 32 v60,2013-07-24 13:25:00,
2013-07-24 08:30:00,57.0,51.5,30.09,West,270,1.0,3.0,82,0.00,,,-99.99,Weather View 32 v60,2013-07-24 13:30:00,
2013-07-24 08:40:00,57.0,51.5,30.09,SSW,202,1.0,3.0,82,0.00,,,-99.99,Weather View 32 v60,2013-07-24 13:40:00,
2013-07-24 08:45:00,58.0,52.2,30.10,NNE,22,1.0,3.0,81,0.00,,,-99.99,Weather View 32 v60,2013-07-24 13:45:00,
2013-07-24 08:50:00,58.0,52.2,30.10,North,0,1.0,3.0,81,0.00,,,-99.99,Weather View 32 v60,2013-07-24 13:50:00,
2013-07-24 08:55:00,58.0,51.8,30.09,NNE,22,1.0,3.0,80,0.00,,,-99.99,Weather View 32 v60,2013-07-24 13:55:00,
2013-07-24 09:00:00,58.0,51.5,30.10,South,180,1.0,3.0,79,0.00,,,-99.99,Weather View 32 v60,2013-07-24 14:00:00,
2013-07-24 09:05:00,58.0,51.5,30.10,South,180,1.0,3.0,79,0.00,,,-99.99,Weather View 32 v60,2013-07-24 14:05:00,
2013-07-24 09:10:00,59.0,52.5,30.09,SSE,158,1.0,3.0,79,0.00,,,-99.99,Weather View 32 v60,2013-07-24 14:10:00,
2013-07-24 09:15:00,59.0,52.1,30.10,SSW,202,1.0,3.0,78,0.00,,,-99.99,Weather View 32 v60,2013-07-24 14:15:00,
2013-07-24 09:25:00,60.0,52.8,30.10,SW,225,1.0,3.0,77,0.00,,,-99.99,Weather View 32 v60,2013-07-24 14:25:00,
2013-07-24 09:30:00,60.0,52.4,30.10,SSW,202,1.0,3.0,76,0.00,,,-99.99,Weather View 32 v60,2013-07-24 14:30:00,
2013-07-24 09:35:00,61.0,53.0,30.10,SSW,202,1.0,3.0,75,0.00,,,-99.99,Weather View 32 v60,2013-07-24 14:35:00,
2013-07-24 09:40:00,61.0,52.6,30.10,South,180,1.0,3.0,74,0.00,,,-99.99,Weather View 32 v60,2013-07-24 14:40:00,
2013-07-24 09:45:00,61.0,52.6,30.09,SSW,202,1.0,3.0,74,0.00,,,-99.99,Weather View 32 v60,2013-07-24 14:45:00,
2013-07-24 09:50:00,62.0,53.6,30.09,SSW,202,2.0,3.0,74,0.00,,,-99.99,Weather View 32 v60,2013-07-24 14:50:00,
2013-07-24 09:55:00,62.0,52.8,30.09,SSE,158,1.0,4.0,72,0.00,,,-99.99,Weather View 32 v60,2013-07-24 14:55:00,
2013-07-24 10:02:00,63.0,53.8,30.09,South,180,1.0,4.0,72,0.00,,,-99.99,Weather View 32 v60,2013-07-24 15:02:00,
2013-07-24 10:10:00,64.0,53.6,30.09,SSW,202,1.0,4.0,69,0.00,,,-99.99,Weather View 32 v60,2013-07-24 15:10:00,
2013-07-24 10:15:00,64.0,53.6,30.08,SSW,202,2.0,4.0,69,0.00,,,-99.99,Weather View 32 v60,2013-07-24 15:15:00,
2013-07-24 10:20:00,64.0,52.8,30.08,South,180,2.0,4.0,67,0.00,,,-99.99,Weather View 32 v60,2013-07-24 15:20:00,
2013-07-24 10:25:00,64.0,52.8,30.08,SW,225,1.0,4.0,67,0.00,,,-99.99,Weather View 32 v60,2013-07-24 15:25:00,
2013-07-24 10:30:00,64.0,52.8,30.08,SW,225,1.0,4.0,67,0.00,,,-99.99,Weather View 32 v60,2013-07-24 15:30:00,
2013-07-24 10:40:00,65.0,53.3,30.07,SW,225,4.0,5.0,66,0.00,,,-99.99,Weather View 32 v60,2013-07-24 15:40:00,
2013-07-24 10:45:00,65.0,52.9,30.07,SW,225,1.0,5.0,65,0.00,,,-99.99,Weather View 32 v60,2013-07-24 15:45:00,
2013-07-24 10:50:00,66.0,53.9,30.07,SSW,202,2.0,5.0,65,0.00,,,-99.99,Weather View 32 v60,2013-07-24 15:50:00,
2013-07-24 10:55:00,66.0,53.0,30.07,SSW,202,1.0,5.0,63,0.00,,,-99.99,Weather View 32 v60,2013-07-24 15:55:00,
2013-07-24 11:00:00,66.0,52.6,30.07,NNE,22,1.0,5.0,62,0.00,,,-99.99,Weather View 32 v60,2013-07-24 16:00:00,
2013-07-24 11:05:00,66.0,52.6,30.07,West,270,2.0,6.0,62,0.00,,,-99.99,Weather View 32 v60,2013-07-24 16:05:00,
2013-07-24 11:10:00,67.0,53.5,30.07,SSW,202,4.0,6.0,62,0.00,,,-99.99,Weather View 32 v60,2013-07-24 16:10:00,
2013-07-24 11:15:00,67.0,52.6,30.07,West,270,4.0,6.0,60,0.00,,,-99.99,Weather View 32 v60,2013-07-24 16:15:00,
2013-07-24 11:20:00,67.0,52.6,30.07,SW,225,1.0,6.0,60,0.00,,,-99.99,Weather View 32 v60,2013-07-24 16:20:00,
2013-07-24 11:25:00,66.0,51.2,30.07,West,270,1.0,6.0,59,0.00,,,-99.99,Weather View 32 v60,2013-07-24 16:25:00,
2013-07-24 11:30:00,66.0,51.7,30.07,WSW,248,2.0,6.0,60,0.00,,,-99.99,Weather View 32 v60,2013-07-24 16:30:00,
2013-07-24 11:35:00,66.0,52.1,30.07,WSW,248,1.0,6.0,61,0.00,,,-99.99,Weather View 32 v60,2013-07-24 16:35:00,
2013-07-24 11:40:00,66.0,52.1,30.07,WNW,292,3.0,6.0,61,0.00,,,-99.99,Weather View 32 v60,2013-07-24 16:40:00,
2013-07-24 11:45:00,67.0,53.1,30.07,SW,225,2.0,6.0,61,0.00,,,-99.99,Weather View 32 v60,2013-07-24 16:45:00,
2013-07-24 11:50:00,67.0,52.6,30.07,SW,225,1.0,6.0,60,0.00,,,-99.99,Weather View 32 v60,2013-07-24 16:50:00,
2013-07-24 11:55:00,68.0,53.6,30.07,WNW,292,3.0,6.0,60,0.00,,,-99.99,Weather View 32 v60,2013-07-24 16:55:00,
2013-07-24 12:03:00,68.0,53.6,30.07,SSW,202,3.0,6.0,60,0.00,,,-99.99,Weather View 32 v60,2013-07-24 17:03:00,
2013-07-24 12:10:00,69.0,54.5,30.06,SSW,202,1.0,6.0,60,0.00,,,-99.99,Weather View 32 v60,2013-07-24 17:10:00,
2013-07-24 12:15:00,70.0,55.0,30.06,West,270,3.0,8.0,59,0.00,,,-99.99,Weather View 32 v60,2013-07-24 17:15:00,
2013-07-24 12:20:00,70.0,54.0,30.06,SW,225,2.0,8.0,57,0.00,,,-99.99,Weather View 32 v60,2013-07-24 17:20:00,
2013-07-24 12:25:00,70.0,53.5,30.05,West,270,3.0,8.0,56,0.00,,,-99.99,Weather View 32 v60,2013-07-24 17:25:00,
2013-07-24 12:30:00,69.0,52.6,30.05,WSW,248,4.0,8.0,56,0.00,,,-99.99,Weather View 32 v60,2013-07-24 17:30:00,
2013-07-24 12:35:00,69.0,53.6,30.05,NNW,338,3.0,8.0,58,0.00,,,-99.99,Weather View 32 v60,2013-07-24 17:35:00,
2013-07-24 12:40:00,70.0,54.5,30.05,WSW,248,4.0,8.0,58,0.00,,,-99.99,Weather View 32 v60,2013-07-24 17:40:00,
2013-07-24 12:45:00,70.0,54.5,30.05,SW,225,3.0,8.0,58,0.00,,,-99.99,Weather View 32 v60,2013-07-24 17:45:00,
2013-07-24 12:50:00,71.0,55.0,30.05,WSW,248,3.0,8.0,57,0.00,,,-99.99,Weather View 32 v60,2013-07-24 17:50:00,
2013-07-24 12:55:00,71.0,54.0,30.05,SW,225,3.0,8.0,55,0.00,,,-99.99,Weather View 32 v60,2013-07-24 17:55:00,
2013-07-24 13:00:00,70.0,52.5,30.05,SW,225,5.0,9.0,54,0.00,,,-99.99,Weather View 32 v60,2013-07-24 18:00:00,
2013-07-24 13:05:00,70.0,53.0,30.04,WSW,248,6.0,9.0,55,0.00,,,-99.99,Weather View 32 v60,2013-07-24 18:05:00,
2013-07-24 13:10:00,70.0,53.0,30.04,WSW,248,4.0,10.0,55,0.00,,,-99.99,Weather View 32 v60,2013-07-24 18:10:00,
2013-07-24 13:15:00,71.0,53.5,30.04,South,180,3.0,10.0,54,0.00,,,-99.99,Weather View 32 v60,2013-07-24 18:15:00,
2013-07-24 13:20:00,71.0,53.0,30.04,West,270,5.0,10.0,53,0.00,,,-99.99,Weather View 32 v60,2013-07-24 18:20:00,
2013-07-24 13:25:00,72.0,53.4,30.04,WSW,248,2.0,10.0,52,0.00,,,-99.99,Weather View 32 v60,2013-07-24 18:25:00,
2013-07-24 13:30:00,72.0,53.4,30.04,SW,225,5.0,10.0,52,0.00,,,-99.99,Weather View 32 v60,2013-07-24 18:30:00,
2013-07-24 13:35:00,71.0,52.4,30.04,NW,315,5.0,10.0,52,0.00,,,-99.99,Weather View 32 v60,2013-07-24 18:35:00,
2013-07-24 13:45:00,71.0,53.0,30.03,WSW,248,5.0,10.0,53,0.00,,,-99.99,Weather View 32 v60,2013-07-24 18:45:00,
2013-07-24 13:50:00,72.0,53.4,30.03,South,180,6.0,10.0,52,0.00,,,-99.99,Weather View 32 v60,2013-07-24 18:50:00,
2013-07-24 13:55:00,73.0,53.2,30.03,SW,225,5.0,10.0,50,0.00,,,-99.99,Weather View 32 v60,2013-07-24 18:55:00,
2013-07-24 14:00:00,74.0,53.6,30.03,SSE,158,3.0,10.0,49,0.00,,,-99.99,Weather View 32 v60,2013-07-24 19:00:00,
2013-07-24 14:05:00,73.0,53.2,30.03,SW,225,3.0,10.0,50,0.00,,,-99.99,Weather View 32 v60,2013-07-24 19:05:00,
2013-07-24 14:10:00,73.0,52.7,30.02,SSW,202,5.0,10.0,49,0.00,,,-99.99,Weather View 32 v60,2013-07-24 19:10:00,
2013-07-24 14:15:00,73.0,53.2,30.02,SSW,202,3.0,10.0,50,0.00,,,-99.99,Weather View 32 v60,2013-07-24 19:15:00,
2013-07-24 14:20:00,73.0,53.2,30.03,WSW,248,3.0,10.0,50,0.00,,,-99.99,Weather View 32 v60,2013-07-24 19:20:00,
2013-07-24 14:25:00,72.0,52.3,30.03,West,270,3.0,10.0,50,0.00,,,-99.99,Weather View 32 v60,2013-07-24 19:25:00,
2013-07-24 14:30:00,72.0,52.8,30.02,WSW,248,3.0,10.0,51,0.00,,,-99.99,Weather View 32 v60,2013-07-24 19:30:00,
2013-07-24 14:35:00,71.0,51.9,30.02,South,180,6.0,10.0,51,0.00,,,-99.99,Weather View 32 v60,2013-07-24 19:35:00,
2013-07-24 14:45:00,72.0,52.8,30.02,West,270,6.0,10.0,51,0.00,,,-99.99,Weather View 32 v60,2013-07-24 19:45:00,
2013-07-24 14:50:00,72.0,52.8,30.02,SW,225,3.0,10.0,51,0.00,,,-99.99,Weather View 32 v60,2013-07-24 19:50:00,
2013-07-24 14:55:00,72.0,52.8,30.02,WNW,292,3.0,10.0,51,0.00,,,-99.99,Weather View 32 v60,2013-07-24 19:55:00,
2013-07-24 15:00:00,73.0,53.2,30.01,SSE,158,2.0,10.0,50,0.00,,,-99.99,Weather View 32 v60,2013-07-24 20:00:00,
2013-07-24 15:05:00,74.0,53.0,30.01,WSW,248,2.0,10.0,48,0.00,,,-99.99,Weather View 32 v60,2013-07-24 20:05:00,
2013-07-24 15:10:00,75.0,53.3,30.01,SW,225,1.0,9.0,47,0.00,,,-99.99,Weather View 32 v60,2013-07-24 20:10:00,
2013-07-24 15:15:00,75.0,52.8,30.01,West,270,3.0,9.0,46,0.00,,,-99.99,Weather View 32 v60,2013-07-24 20:15:00,
2013-07-24 15:20:00,76.0,53.7,30.01,South,180,5.0,9.0,46,0.00,,,-99.99,Weather View 32 v60,2013-07-24 20:20:00,
2013-07-24 15:25:00,75.0,52.2,30.01,West,270,1.0,9.0,45,0.00,,,-99.99,Weather View 32 v60,2013-07-24 20:25:00,
2013-07-24 15:35:00,76.0,53.1,30.01,WSW,248,1.0,9.0,45,0.00,,,-99.99,Weather View 32 v60,2013-07-24 20:35:00,
2013-07-24 15:40:00,75.0,52.2,30.01,SW,225,5.0,9.0,45,0.00,,,-99.99,Weather View 32 v60,2013-07-24 20:40:00,
2013-07-24 15:45:00,75.0,52.8,30.01,SW,225,3.0,9.0,46,0.00,,,-99.99,Weather View 32 v60,2013-07-24 20:45:00,
2013-07-24 15:50:00,75.0,52.2,30.01,West,270,3.0,9.0,45,0.00,,,-99.99,Weather View 32 v60,2013-07-24 20:50:00,
2013-07-24 15:55:00,75.0,52.8,30.00,WSW,248,4.0,9.0,46,0.00,,,-99.99,Weather View 32 v60,2013-07-24 20:55:00,
2013-07-24 16:00:00,76.0,53.7,30.00,WSW,248,1.0,9.0,46,0.00,,,-99.99,Weather View 32 v60,2013-07-24 21:00:00,
2013-07-24 16:06:00,77.0,54.0,30.00,WSW,248,3.0,9.0,45,0.00,,,-99.99,Weather View 32 v60,2013-07-24 21:06:00,
2013-07-24 16:15:00,77.0,52.1,30.00,ESE,112,3.0,11.0,42,0.00,,,-99.99,Weather View 32 v60,2013-07-24 21:15:00,
2013-07-24 16:20:00,77.0,52.7,30.00,SW,225,8.0,11.0,43,0.00,,,-99.99,Weather View 32 v60,2013-07-24 21:20:00,
2013-07-24 16:25:00,76.0,52.4,30.00,SSW,202,4.0,11.0,44,0.00,,,-99.99,Weather View 32 v60,2013-07-24 21:25:00,
2013-07-24 16:30:00,77.0,52.7,30.00,WSW,248,3.0,11.0,43,0.00,,,-99.99,Weather View 32 v60,2013-07-24 21:30:00,
2013-07-24 16:35:00,78.0,53.6,29.99,South,180,5.0,11.0,43,0.00,,,-99.99,Weather View 32 v60,2013-07-24 21:35:00,
2013-07-24 16:40:00,78.0,52.3,30.00,WSW,248,5.0,11.0,41,0.00,,,-99.99,Weather View 32 v60,2013-07-24 21:40:00,
2013-07-24 16:45:00,76.0,51.2,29.99,West,270,3.0,11.0,42,0.00,,,-99.99,Weather View 32 v60,2013-07-24 21:45:00,
2013-07-24 16:50:00,76.0,51.2,29.99,WNW,292,4.0,11.0,42,0.00,,,-99.99,Weather View 32 v60,2013-07-24 21:50:00,
2013-07-24 16:55:00,76.0,51.2,29.99,SW,225,1.0,11.0,42,0.00,,,-99.99,Weather View 32 v60,2013-07-24 21:55:00,
2013-07-24 17:05:00,77.0,50.8,29.98,SSW,202,4.0,11.0,40,0.00,,,-99.99,Weather View 32 v60,2013-07-24 22:05:00,
2013-07-24 17:10:00,78.0,51.6,29.98,SW,225,4.0,11.0,40,0.00,,,-99.99,Weather View 32 v60,2013-07-24 22:10:00,
2013-07-24 17:15:00,78.0,51.6,29.98,SSW,202,3.0,8.0,40,0.00,,,-99.99,Weather View 32 v60,2013-07-24 22:15:00,
2013-07-24 17:20:00,78.0,51.6,29.98,West,270,3.0,8.0,40,0.00,,,-99.99,Weather View 32 v60,2013-07-24 22:20:00,
2013-07-24 17:25:00,79.0,51.8,29.98,South,180,3.0,8.0,39,0.00,,,-99.99,Weather View 32 v60,2013-07-24 22:25:00,
2013-07-24 17:30:00,79.0,51.8,29.98,WSW,248,2.0,8.0,39,0.00,,,-99.99,Weather View 32 v60,2013-07-24 22:30:00,
2013-07-24 17:40:00,79.0,51.8,29.98,WSW,248,2.0,8.0,39,0.00,,,-99.99,Weather View 32 v60,2013-07-24 22:40:00,
2013-07-24 17:45:00,79.0,51.1,29.98,SW,225,1.0,8.0,38,0.00,,,-99.99,Weather View 32 v60,2013-07-24 22:45:00,
2013-07-24 17:50:00,79.0,51.1,29.98,North,0,1.0,8.0,38,0.00,,,-99.99,Weather View 32 v60,2013-07-24 22:50:00,
2013-07-24 17:55:00,78.0,51.0,29.98,SE,135,1.0,8.0,39,0.00,,,-99.99,Weather View 32 v60,2013-07-24 22:55:00,
2013-07-24 18:00:00,78.0,51.6,29.98,SSW,202,5.0,9.0,40,0.00,,,-99.99,Weather View 32 v60,2013-07-24 23:00:00,
2013-07-24 18:05:00,78.0,51.0,29.98,SW,225,6.0,9.0,39,0.00,,,-99.99,Weather View 32 v60,2013-07-24 23:05:00,
2013-07-24 18:10:00,77.0,50.1,29.97,SW,225,3.0,9.0,39,0.00,,,-99.99,Weather View 32 v60,2013-07-24 23:10:00,
2013-07-24 18:15:00,77.0,50.8,29.97,SSW,202,1.0,9.0,40,0.00,,,-99.99,Weather View 32 v60,2013-07-24 23:15:00,
2013-07-24 18:25:00,78.0,51.6,29.97,SSE,158,1.0,9.0,40,0.00,,,-99.99,Weather View 32 v60,2013-07-24 23:25:00,
2013-07-24 18:30:00,78.0,51.6,29.97,SSW,202,3.0,9.0,40,0.00,,,-99.99,Weather View 32 v60,2013-07-24 23:30:00,
2013-07-24 18:35:00,78.0,51.6,29.97,WSW,248,2.0,9.0,40,0.00,,,-99.99,Weather View 32 v60,2013-07-24 23:35:00,
2013-07-24 18:40:00,77.0,50.8,29.97,West,270,1.0,9.0,40,0.00,,,-99.99,Weather View 32 v60,2013-07-24 23:40:00,
2013-07-24 18:45:00,77.0,50.8,29.97,WNW,292,2.0,9.0,40,0.00,,,-99.99,Weather View 32 v60,2013-07-24 23:45:00,
2013-07-24 18:50:00,77.0,50.8,29.97,WNW,292,5.0,9.0,40,0.00,,,-99.99,Weather View 32 v60,2013-07-24 23:50:00,
2013-07-24 18:55:00,76.0,50.5,29.97,WNW,292,3.0,9.0,41,0.00,,,-99.99,Weather View 32 v60,2013-07-24 23:55:00,
2013-07-24 19:00:00,76.0,51.2,29.97,NNW,338,3.0,9.0,42,0.00,,,-99.99,Weather View 32 v60,2013-07-25 00:00:00,
2013-07-24 19:05:00,75.0,50.9,29.97,WNW,292,1.0,8.0,43,0.00,,,-99.99,Weather View 32 v60,2013-07-25 00:05:00,
2013-07-24 19:10:00,74.0,50.6,29.97,North,0,1.0,8.0,44,0.00,,,-99.99,Weather View 32 v60,2013-07-25 00:10:00,
2013-07-24 19:15:00,74.0,51.2,29.97,West,270,1.0,8.0,45,0.00,,,-99.99,Weather View 32 v60,2013-07-25 00:15:00,
2013-07-24 19:25:00,74.0,51.2,29.97,WNW,292,2.0,8.0,45,0.00,,,-99.99,Weather View 32 v60,2013-07-25 00:25:00,
2013-07-24 19:30:00,73.0,50.9,29.97,SW,225,3.0,8.0,46,0.00,,,-99.99,Weather View 32 v60,2013-07-25 00:30:00,
2013-07-24 19:35:00,73.0,51.5,29.97,WSW,248,2.0,8.0,47,0.00,,,-99.99,Weather View 32 v60,2013-07-25 00:35:00,
2013-07-24 19:40:00,73.0,51.5,29.97,SW,225,2.0,8.0,47,0.00,,,-99.99,Weather View 32 v60,2013-07-25 00:40:00,
2013-07-24 19:45:00,74.0,52.4,29.97,SW,225,4.0,8.0,47,0.00,,,-99.99,Weather View 32 v60,2013-07-25 00:45:00,
2013-07-24 19:50:00,74.0,52.4,29.97,SW,225,2.0,6.0,47,0.00,,,-99.99,Weather View 32 v60,2013-07-25 00:50:00,
2013-07-24 19:55:00,74.0,52.4,29.96,SW,225,1.0,6.0,47,0.00,,,-99.99,Weather View 32 v60,2013-07-25 00:55:00,
2013-07-24 20:00:00,74.0,52.4,29.96,SW,225,3.0,6.0,47,0.00,,,-99.99,Weather View 32 v60,2013-07-25 01:00:00,
2013-07-24 20:05:00,74.0,53.0,29.96,WSW,248,1.0,6.0,48,0.00,,,-99.99,Weather View 32 v60,2013-07-25 01:05:00,
2013-07-24 20:10:00,74.0,53.0,29.96,SSW,202,1.0,6.0,48,0.00,,,-99.99,Weather View 32 v60,2013-07-25 01:10:00,
2013-07-24 20:15:00,73.0,52.7,29.96,SSW,202,1.0,6.0,49,0.00,,,-99.99,Weather View 32 v60,2013-07-25 01:15:00,
2013-07-24 20:20:00,72.0,52.8,29.96,SW,225,5.0,6.0,51,0.00,,,-99.99,Weather View 32 v60,2013-07-25 01:20:00,
2013-07-24 20:25:00,70.0,51.5,29.96,SW,225,3.0,6.0,52,0.00,,,-99.99,Weather View 32 v60,2013-07-25 01:25:00,
2013-07-24 20:30:00,70.0,52.5,29.96,SW,225,2.0,6.0,54,0.00,,,-99.99,Weather View 32 v60,2013-07-25 01:30:00,
2013-07-24 20:35:00,69.0,52.1,29.96,SSW,202,1.0,6.0,55,0.00,,,-99.99,Weather View 32 v60,2013-07-25 01:35:00,
2013-07-24 20:40:00,68.0,52.2,29.95,SSE,158,3.0,5.0,57,0.00,,,-99.99,Weather View 32 v60,2013-07-25 01:40:00,
2013-07-24 20:45:00,67.0,51.7,29.95,SSW,202,3.0,5.0,58,0.00,,,-99.99,Weather View 32 v60,2013-07-25 01:45:00,
2013-07-24 20:50:00,67.0,52.2,29.95,South,180,4.0,6.0,59,0.00,,,-99.99,Weather View 32 v60,2013-07-25 01:50:00,
2013-07-24 21:00:00,66.0,52.1,29.95,SW,225,0.0,6.0,61,0.00,,,-99.99,Weather View 32 v60,2013-07-25 02:00:00,
2013-07-24 21:05:00,66.0,52.1,29.96,SSW,202,1.0,6.0,61,0.00,,,-99.99,Weather View 32 v60,2013-07-25 02:05:00,
2013-07-24 21:10:00,65.0,51.6,29.96,SSE,158,1.0,6.0,62,0.00,,,-99.99,Weather View 32 v60,2013-07-25 02:10:00,
2013-07-24 21:15:00,65.0,52.1,29.96,WSW,248,1.0,6.0,63,0.00,,,-99.99,Weather View 32 v60,2013-07-25 02:15:00,
2013-07-24 21:20:00,64.0,51.1,29.96,SSW,202,1.0,6.0,63,0.00,,,-99.99,Weather View 32 v60,2013-07-25 02:20:00,
2013-07-24 21:30:00,64.0,52.0,29.97,SW,225,0.0,6.0,65,0.00,,,-99.99,Weather View 32 v60,2013-07-25 02:30:00,
2013-07-24 21:35:00,64.0,52.4,29.97,SSW,202,1.0,6.0,66,0.00,,,-99.99,Weather View 32 v60,2013-07-25 02:35:00,
2013-07-24 21:40:00,63.0,51.4,29.97,SW,225,0.0,6.0,66,0.00,,,-99.99,Weather View 32 v60,2013-07-25 02:40:00,
2013-07-24 21:45:00,63.0,51.4,29.98,SSW,202,0.0,6.0,66,0.00,,,-99.99,Weather View 32 v60,2013-07-25 02:45:00,
2013-07-24 21:50:00,63.0,51.8,29.98,SE,135,1.0,5.0,67,0.00,,,-99.99,Weather View 32 v60,2013-07-25 02:50:00,
2013-07-24 21:55:00,63.0,51.8,29.97,South,180,1.0,4.0,67,0.00,,,-99.99,Weather View 32 v60,2013-07-25 02:55:00,
2013-07-24 22:00:00,63.0,52.2,29.97,SSW,202,1.0,3.0,68,0.00,,,-99.99,Weather View 32 v60,2013-07-25 03:00:00,
2013-07-24 22:05:00,62.0,51.7,29.97,South,180,1.0,5.0,69,0.00,,,-99.99,Weather View 32 v60,2013-07-25 03:05:00,
2013-07-24 22:10:00,62.0,51.7,29.97,South,180,1.0,5.0,69,0.00,,,-99.99,Weather View 32 v60,2013-07-25 03:10:00,
2013-07-24 22:15:00,63.0,53.0,29.97,SSW,202,1.0,5.0,70,0.00,,,-99.99,Weather View 32 v60,2013-07-25 03:15:00,
2013-07-24 22:21:00,63.0,53.0,29.98,SW,225,1.0,5.0,70,0.00,,,-99.99,Weather View 32 v60,2013-07-25 03:21:00,
2013-07-24 22:30:00,63.0,53.0,29.98,SW,225,3.0,5.0,70,0.00,,,-99.99,Weather View 32 v60,2013-07-25 03:30:00,
2013-07-24 22:35:00,63.0,53.0,29.98,SSW,202,3.0,5.0,70,0.00,,,-99.99,Weather View 32 v60,2013-07-25 03:35:00,
2013-07-24 22:40:00,63.0,53.0,29.98,South,180,3.0,5.0,70,0.00,,,-99.99,Weather View 32 v60,2013-07-25 03:40:00,
2013-07-24 22:45:00,63.0,53.0,29.98,SSW,202,2.0,5.0,70,0.00,,,-99.99,Weather View 32 v60,2013-07-25 03:45:00,
2013-07-24 22:50:00,63.0,53.0,29.98,South,180,3.0,5.0,70,0.00,,,-99.99,Weather View 32 v60,2013-07-25 03:50:00,
2013-07-24 22:56:00,63.0,53.4,29.98,SSW,202,2.0,5.0,71,0.00,,,-99.99,Weather View 32 v60,2013-07-25 03:56:00,
2013-07-24 23:05:00,63.0,53.4,29.97,South,180,3.0,6.0,71,0.00,,,-99.99,Weather View 32 v60,2013-07-25 04:05:00,
2013-07-24 23:10:00,63.0,53.4,29.97,South,180,3.0,6.0,71,0.00,,,-99.99,Weather View 32 v60,2013-07-25 04:10:00,
2013-07-24 23:15:00,63.0,53.4,29.97,SW,225,1.0,6.0,71,0.00,,,-99.99,Weather View 32 v60,2013-07-25 04:15:00,
2013-07-24 23:20:00,63.0,53.4,29.97,SSW,202,3.0,6.0,71,0.00,,,-99.99,Weather View 32 v60,2013-07-25 04:20:00,
2013-07-24 23:25:00,63.0,53.4,29.97,SSW,202,1.0,6.0,71,0.00,,,-99.99,Weather View 32 v60,2013-07-25 04:25:00,
2013-07-24 23:30:00,63.0,53.4,29.97,SW,225,2.0,6.0,71,0.00,,,-99.99,Weather View 32 v60,2013-07-25 04:30:00,
2013-07-24 23:35:00,63.0,53.8,29.97,SW,225,3.0,6.0,72,0.00,,,-99.99,Weather View 32 v60,2013-07-25 04:35:00,
2013-07-24 23:40:00,63.0,53.8,29.97,SSW,202,3.0,6.0,72,0.00,,,-99.99,Weather View 32 v60,2013-07-25 04:40:00,
2013-07-24 23:45:00,62.0,52.8,29.97,WNW,292,1.0,6.0,72,0.00,,,-99.99,Weather View 32 v60,2013-07-25 04:45:00,
2013-07-24 23:55:00,62.0,52.8,29.98,SSE,158,2.0,6.0,72,0.00,,,-99.99,Weather View 32 v60,2013-07-25 04:55:00,